Precipitable_Water
0.71 0.65 0.64 0.64 0.68 0.69 0.68 0.67 0.66 0.75 0.86 0.85 0.85 0.85 0.92 1.01 1.04 1.06 1.12 1.16 1.19 1.22 1.30 1.39 1.42 1.51 1.55 1.62 1.68 1.72 1.64 1.67 1.72 1.75 1.83 1.94 1.99 2.06 2.04 2.06 2.08 2.06 2.06 2.12
0.61 0.60 0.67 0.67 0.69 0.62 0.63 0.63 0.65 0.76 0.84 0.85 0.81 0.81 0.87 0.92 0.96 1.04 1.07 1.12 1.16 1.22 1.25 1.31 1.38 1.41 1.50 1.56 1.63 1.67 1.75 1.76 1.70 1.74 1.77 1.84 1.87 1.96 1.98 2.04 2.08 2.13 2.11 2.13
0.57 0.62 0.68 0.64 0.63 0.52 0.59 0.62 0.61 0.64 0.76 0.78 0.75 0.69 0.71 0.82 0.90 0.99 1.06 1.10 1.12 1.13 1.13 1.16 1.23 1.31 1.41 1.48 1.59 1.68 1.70 1.81 1.85 1.80 1.78 1.76 1.87 1.92 1.92 2.01 2.08 2.13 2.14 2.14
0.58 0.65 0.61 0.62 0.56 0.52 0.56 0.65 0.66 0.64 0.61 0.48 0.68 0.40 0.54 0.69 0.71 0.78 0.87 0.96 0.99 1.01 1.04 1.09 1.17 1.24 1.26 1.34 1.50 1.69 1.73 1.77 1.95 1.90 1.80 1.68 1.69 1.67 1.81 1.93 2.03 1.99 2.04 2.06
0.51 0.54 0.56 0.56 0.56 0.53 0.54 0.63 0.63 0.60 0.58 0.62 0.54 0.45 0.46 0.59 0.56 0.64 0.74 0.84 0.94 1.01 1.07 1.10 1.15 1.17 1.24 1.28 1.36 1.50 1.69 1.79 1.85 1.90 1.83 1.81 1.71 1.76 1.88 1.92 1.88 1.93 2.01 2.05
0.52 0.60 0.59 0.55 0.57 0.54 0.55 0.56 0.55 0.58 0.58 0.41 0.51 0.54 0.42 0.51 0.56 0.63 0.73 0.79 0.86 0.91 0.98 1.07 1.13 1.21 1.22 1.28 1.32 1.43 1.59 1.73 1.81 1.89 1.86 1.84 1.88 1.83 1.81 1.85 1.85 1.88 1.90 1.96
0.43 0.49 0.52 0.57 0.53 0.59 0.55 0.54 0.43 0.40 0.38 0.35 0.49 0.50 0.48 0.51 0.58 0.64 0.66 0.71 0.80 0.86 0.89 0.94 1.02 1.14 1.21 1.24 1.26 1.34 1.50 1.58 1.70 1.82 1.87 1.86 1.87 1.88 1.81 1.84 1.83 1.81 1.80 1.84
0.34 0.34 0.46 0.58 0.57 0.52 0.55 0.57 0.44 0.33 0.35 0.36 0.47 0.41 0.48 0.61 0.65 0.64 0.69 0.75 0.76 0.80 0.82 0.86 0.94 1.04 1.14 1.18 1.28 1.28 1.37 1.50 1.60 1.71 1.79 1.86 1.88 1.82 1.85 1.88 1.87 1.90 1.87 1.71
0.31 0.36 0.49 0.59 0.66 0.62 0.57 0.51 0.51 0.45 0.39 0.34 0.37 0.42 0.49 0.55 0.58 0.61 0.60 0.67 0.71 0.76 0.76 0.75 0.86 0.96 1.03 1.10 1.22 1.32 1.33 1.45 1.56 1.63 1.71 1.74 1.77 1.75 1.82 1.92 1.95 1.91 1.94 1.71
0.36 0.37 0.48 0.60 0.69 0.67 0.66 0.65 0.47 0.44 0.31 0.24 0.25 0.30 0.39 0.47 0.53 0.62 0.61 0.68 0.76 0.79 0.75 0.79 0.83 0.93 1.04 1.11 1.19 1.27 1.35 1.39 1.46 1.50 1.57 1.61 1.69 1.69 1.73 1.79 1.77 1.77 1.75 1.63
0.42 0.50 0.45 0.54 0.58 0.57 0.53 0.50 0.48 0.46 0.41 0.28 0.24 0.29 0.40 0.47 0.49 0.55 0.65 0.71 0.75 0.78 0.84 0.83 0.84 0.93 1.03 1.11 1.15 1.21 1.25 1.32 1.34 1.41 1.46 1.53 1.61 1.68 1.69 1.66 1.67 1.69 1.70 1.59
0.44 0.50 0.41 0.45 0.51 0.52 0.51 0.49 0.49 0.46 0.43 0.34 0.29 0.32 0.45 0.52 0.52 0.57 0.61 0.69 0.76 0.86 0.91 0.97 0.98 0.99 1.07 1.12 1.15 1.20 1.25 1.24 1.31 1.39 1.43 1.46 1.52 1.60 1.62 1.64 1.67 1.79 1.80 1.73
0.44 0.40 0.38 0.35 0.39 0.41 0.41 0.49 0.51 0.51 0.42 0.33 0.30 0.30 0.47 0.57 0.54 0.57 0.60 0.66 0.70 0.81 0.97 1.01 1.03 1.02 1.06 1.13 1.20 1.22 1.27 1.31 1.35 1.37 1.38 1.42 1.45 1.55 1.61 1.66 1.70 1.78 1.81 1.77
0.50 0.48 0.42 0.38 0.36 0.41 0.40 0.45 0.45 0.44 0.38 0.36 0.31 0.30 0.37 0.52 0.52 0.58 0.62 0.65 0.70 0.78 0.93 1.06 1.18 1.13 1.17 1.26 1.30 1.38 1.41 1.46 1.51 1.52 1.50 1.46 1.48 1.56 1.61 1.68 1.74 1.77 1.81 1.78
0.46 0.41 0.43 0.46 0.38 0.37 0.42 0.38 0.37 0.35 0.34 0.31 0.36 0.31 0.45 0.51 0.54 0.59 0.65 0.69 0.70 0.78 0.89 0.99 1.12 1.20 1.25 1.34 1.45 1.55 1.64 1.66 1.68 1.68 1.68 1.69 1.74 1.78 1.79 1.81 1.84 1.86 1.90 1.87
0.40 0.35 0.40 0.39 0.38 0.35 0.34 0.35 0.34 0.34 0.32 0.32 0.32 0.41 0.64 0.68 0.69 0.70 0.74 0.80 0.85 0.90 0.96 1.04 1.12 1.23 1.34 1.41 1.51 1.61 1.67 1.72 1.82 1.79 1.81 1.88 1.95 2.03 2.02 1.98 1.87 1.91 1.91 1.92
0.33 0.33 0.34 0.34 0.38 0.35 0.33 0.37 0.34 0.35 0.36 0.36 0.35 0.56 0.71 0.71 0.76 0.83 0.88 0.92 0.93 0.99 1.05 1.08 1.10 1.17 1.27 1.35 1.46 1.52 1.63 1.74 1.78 1.82 1.84 1.88 1.96 2.00 2.02 2.06 2.12 1.76 1.71 1.75
0.26 0.26 0.29 0.28 0.36 0.27 0.46 0.54 0.50 0.47 0.44 0.44 0.59 0.65 0.74 0.78 0.85 0.91 0.98 0.96 0.96 1.00 1.02 1.05 1.13 1.22 1.28 1.34 1.38 1.42 1.48 1.51 1.53 1.55 1.58 1.70 1.77 1.81 1.86 1.87 1.84 1.82 1.73 1.77
0.28 0.27 0.26 0.29 0.30 0.44 0.47 0.48 0.46 0.43 0.49 0.59 0.62 0.71 0.79 0.85 0.87 0.86 1.00 1.03 1.01 1.05 1.11 1.15 1.20 1.20 1.23 1.26 1.33 1.33 1.36 1.43 1.44 1.44 1.46 1.56 1.67 1.69 1.73 1.67 1.66 1.69 1.69 1.68
0.29 0.33 0.29 0.25 0.26 0.27 0.37 0.50 0.59 0.58 0.46 0.71 0.74 0.76 0.74 0.70 0.62 0.84 1.02 1.03 1.03 1.09 1.12 1.09 1.08 1.08 1.11 1.18 1.28 1.27 1.28 1.32 1.30 1.39 1.47 1.54 1.56 1.56 1.49 1.43 1.41 1.47 1.53 1.55
0.29 0.31 0.29 0.33 0.29 0.38 0.56 0.57 0.62 0.36 0.47 0.66 0.75 0.72 0.76 0.71 0.84 0.97 1.02 0.97 1.06 1.08 1.06 1.05 1.04 1.01 1.09 1.20 1.24 1.17 1.21 1.21 1.32 1.38 1.39 1.36 1.35 1.34 1.33 1.31 1.31 1.38 1.44 1.54
0.31 0.30 0.31 0.35 0.31 0.31 0.60 0.58 0.40 0.58 0.64 0.64 0.70 0.77 0.79 0.83 0.89 0.96 0.97 0.96 0.98 0.97 1.00 1.04 1.04 1.07 1.17 1.24 1.21 1.12 1.09 1.25 1.28 1.30 1.29 1.32 1.37 1.39 1.39 1.38 1.41 1.46 1.50 1.61
0.34 0.34 0.36 0.36 0.37 0.55 0.55 0.50 0.63 0.66 0.66 0.73 0.78 0.79 0.80 0.83 0.92 0.99 0.94 0.95 0.97 0.96 0.96 1.01 1.04 1.06 1.10 1.14 1.15 1.12 1.22 1.32 1.37 1.33 1.41 1.49 1.54 1.54 1.49 1.42 1.38 1.46 1.60 1.63
0.45 0.51 0.43 0.41 0.48 0.52 0.58 0.69 0.69 0.71 0.75 0.82 0.84 0.81 0.85 0.90 1.01 0.98 0.97 0.99 0.96 0.93 0.93 1.01 1.02 1.01 1.08 1.19 1.21 1.23 1.26 1.34 1.40 1.40 1.42 1.50 1.46 1.43 1.39 1.39 1.44 1.45 1.50 1.53
0.53 0.50 0.51 0.55 0.59 0.61 0.70 0.73 0.75 0.82 0.90 0.88 0.89 0.91 0.96 1.06 1.03 0.99 0.98 0.98 0.97 0.98 1.03 1.07 1.08 1.11 1.12 1.18 1.22 1.29 1.35 1.39 1.32 1.34 1.37 1.38 1.38 1.35 1.30 1.28 1.28 1.28 1.32 1.38
0.56 0.51 0.45 0.42 0.56 0.51 0.58 0.77 0.86 0.86 0.90 0.94 0.94 1.00 1.12 1.10 1.00 1.03 1.00 1.03 1.05 1.05 1.10 1.10 1.14 1.18 1.18 1.20 1.21 1.29 1.34 1.30 1.29 1.27 1.25 1.28 1.33 1.38 1.39 1.34 1.31 1.37 1.39 1.40
Wind_Speed
7 4 3 5 6 6 5 5 6 5 4 2 1 2 4 8 8 7 6 7 6 5 4 4 5 6 7 7 7 8 7 7 6 5 5 5 5 5 6 6 6 6 5 4
9 7 5 2 3 3 4 5 8 5 6 2 4 2 4 8 8 8 7 6 5 4 4 4 4 5 7 8 8 8 9 8 8 7 5 5 5 5 5 6 5 6 6 5
12 5 6 3 2 2 5 6 7 8 5 5 4 8 7 6 6 6 7 6 6 5 4 4 4 5 6 7 8 9 9 9 11 9 8 7 5 6 5 5 6 5 6 6
13 9 7 4 0 2 4 4 4 7 7 8 5 11 7 6 5 6 6 6 6 6 6 5 5 4 5 6 7 8 10 9 9 11 10 9 8 7 6 6 6 6 6 6
13 11 9 7 1 0 3 1 4 5 5 3 7 7 8 7 5 4 5 4 4 5 6 6 6 5 4 5 6 7 9 10 9 10 11 10 10 8 7 7 6 7 6 7
13 10 8 4 4 2 2 1 0 3 2 10 6 4 8 8 7 6 3 2 1 2 3 4 5 5 4 4 5 5 8 10 10 10 11 12 11 10 9 8 8 8 8 8
18 14 10 9 5 3 5 5 1 2 5 8 6 3 7 7 6 7 7 6 4 2 1 1 3 4 4 4 4 4 6 9 10 10 10 12 13 12 11 10 9 9 9 9
17 17 17 11 9 4 4 3 1 1 3 7 4 7 6 5 5 5 4 5 5 5 4 2 1 2 4 4 3 3 4 7 9 10 9 10 12 11 11 11 11 10 10 9
17 13 12 11 8 8 6 4 3 2 5 2 3 6 7 4 2 2 3 3 4 4 4 4 4 3 2 4 4 2 2 4 7 8 9 9 10 12 11 11 11 11 10 9
15 16 11 11 10 8 4 5 4 3 3 3 6 4 7 6 5 5 4 3 3 4 4 4 4 3 3 2 2 3 3 3 5 7 7 8 8 10 11 12 12 11 10 10
12 15 12 12 13 11 7 8 5 3 0 1 2 5 3 3 3 3 3 2 2 2 4 3 2 2 1 0 1 2 2 2 4 7 8 10 10 10 11 12 12 12 12 12
17 16 14 13 9 6 5 8 10 6 5 2 1 6 4 3 3 1 0 1 1 1 1 2 2 1 2 2 3 4 5 5 6 6 8 10 11 12 13 13 14 14 14 14
21 14 13 12 10 8 8 11 9 5 3 4 2 6 4 3 4 2 2 2 2 3 3 3 3 3 4 4 5 6 7 8 9 9 11 12 13 14 15 16 17 17 18 17
21 16 14 12 10 9 9 11 10 10 5 6 3 6 5 1 2 4 4 4 3 3 4 5 5 6 7 8 8 9 10 11 12 13 13 14 16 17 18 19 20 21 22 22
23 20 17 13 7 7 10 11 10 9 6 6 9 5 1 2 4 4 5 4 3 4 5 6 8 10 11 12 13 14 14 15 16 17 18 19 20 21 21 22 22 23 24 24
23 17 19 19 12 11 11 10 9 8 7 7 7 6 4 3 4 3 4 4 4 5 6 8 9 12 13 14 15 16 17 18 19 21 21 22 23 24 24 24 24 24 25 27
22 20 17 18 15 13 14 13 11 9 8 8 9 5 5 2 1 3 3 4 5 6 8 10 11 12 13 15 16 18 19 20 21 22 23 24 24 25 25 26 27 30 33 36
21 21 18 16 15 17 9 10 10 9 8 8 6 8 6 3 1 2 4 5 7 9 10 12 13 14 15 16 17 18 19 20 21 22 23 23 24 25 25 27 28 31 30 31
22 22 18 17 18 11 12 12 12 10 7 9 9 9 7 5 3 3 6 7 9 11 12 14 16 17 17 17 18 18 18 19 20 19 20 19 20 21 24 27 28 29 29 30
22 23 20 19 20 17 14 15 12 10 11 12 11 10 8 6 8 4 7 9 11 12 13 16 16 16 16 16 16 16 17 17 18 18 19 19 20 22 24 27 28 30 31 33
22 22 23 19 18 12 11 13 11 13 9 15 13 10 9 7 6 6 8 10 12 14 15 15 14 14 14 15 15 15 16 17 18 18 18 19 20 21 23 25 29 30 30 30
23 21 20 20 19 15 15 12 13 9 11 13 12 9 8 5 6 7 10 12 13 14 14 14 14 14 14 15 15 17 18 17 17 17 17 18 20 21 21 23 26 24 24 22
24 25 21 20 19 14 19 13 13 11 13 13 12 10 8 7 7 9 11 12 12 13 14 13 13 13 13 15 17 17 18 18 18 18 18 18 18 18 20 20 21 19 13 9
23 21 20 20 18 17 20 14 14 14 13 12 11 10 9 8 8 10 11 12 12 13 13 12 12 13 15 16 17 18 18 18 18 17 17 16 16 16 15 14 15 14 12 9
19 23 21 18 16 18 19 18 16 15 15 13 11 10 8 8 9 10 11 12 12 13 12 13 13 14 15 16 17 17 17 18 16 16 15 14 14 13 11 12 13 11 10 8
25 22 23 20 22 21 22 21 20 18 17 14 12 10 9 9 10 11 12 12 12 12 12 12 13 13 14 16 17 17 17 16 15 13 13 12 12 11 11 10 10 10 9 8
Wind_Direction
184 210 130 68 64 65 62 40 36 48 39 348 170 166 158 172 175 169 162 160 162 169 166 181 197 207 209 212 213 212 209 205 201 193 187 183 189 193 198 199 204 205 208 212
186 209 139 109 76 51 49 40 43 53 34 24 88 112 155 170 179 183 184 182 189 193 204 210 219 217 217 219 221 219 216 213 212 211 203 199 199 196 194 198 205 216 224 228
205 141 164 170 104 11 85 31 28 26 53 74 60 97 117 155 174 190 204 208 211 214 219 223 221 222 224 226 225 220 218 224 223 215 211 211 208 201 202 213 220 228 230 233
208 175 190 202 300 6 87 29 29 24 19 65 51 97 100 123 163 188 200 206 217 223 226 227 227 227 231 229 227 223 218 214 214 213 215 215 217 218 225 231 233 234 233 244
196 194 199 218 129 139 79 49 17 21 59 101 76 86 98 105 122 158 181 200 214 225 231 229 231 236 240 233 229 225 218 215 221 219 221 221 224 228 234 235 234 235 244 251
204 194 202 194 163 206 175 221 226 64 93 64 63 69 108 103 97 112 134 173 192 223 229 232 229 228 230 231 227 226 217 219 222 225 225 227 228 231 239 243 242 247 251 259
204 201 191 193 202 177 195 239 126 95 98 72 70 80 93 109 96 83 93 95 90 80 75 195 209 207 217 216 222 224 220 222 226 229 231 230 231 234 239 244 245 251 255 265
197 201 203 193 215 258 198 284 33 145 73 103 82 70 89 117 110 98 95 85 72 61 53 70 138 196 208 201 205 214 221 225 223 226 229 230 231 232 238 243 247 252 260 267
192 192 176 192 193 201 161 184 73 157 133 145 83 113 85 124 167 155 114 84 68 61 59 70 88 102 146 193 204 207 223 227 225 227 229 234 238 236 240 244 246 252 256 261
191 186 183 184 184 185 214 157 184 158 122 82 115 103 90 93 107 111 126 99 80 66 71 73 74 83 87 126 184 219 233 244 234 231 232 237 241 239 241 244 245 249 254 255
193 193 176 179 194 182 189 203 193 125 125 99 134 111 69 98 76 103 110 90 79 84 63 67 60 62 59 83 207 220 232 250 251 246 245 247 249 250 248 250 248 251 254 255
188 194 179 186 177 195 216 205 191 216 163 109 274 115 107 93 75 79 262 266 286 266 17 21 16 349 346 289 262 258 259 262 269 265 257 257 256 257 255 255 252 254 257 259
188 193 179 183 188 196 209 198 211 233 195 162 267 131 132 102 73 67 19 325 291 268 258 283 325 315 299 292 285 277 269 268 272 274 269 265 261 261 261 259 258 258 259 261
193 201 206 195 199 187 188 193 203 214 205 175 215 140 152 79 20 7 346 333 305 293 279 279 283 292 294 295 287 284 282 278 276 275 277 274 267 264 265 265 263 261 261 262
200 212 209 215 195 206 202 190 199 220 241 227 171 194 191 306 308 328 337 340 323 314 308 299 292 291 292 291 291 289 286 283 282 280 279 276 274 268 266 266 266 265 264 264
202 209 208 217 211 219 216 206 209 216 221 224 226 220 270 278 282 312 325 334 339 337 334 325 313 303 297 295 293 294 293 289 285 283 281 281 276 271 269 269 268 266 266 265
200 208 206 214 210 212 221 214 210 215 226 244 235 209 218 233 303 334 335 338 336 329 328 326 324 318 311 304 299 297 297 294 291 289 286 285 280 275 270 269 264 269 274 269
205 207 210 218 204 218 210 212 228 235 236 234 214 208 212 218 246 319 330 328 327 324 322 321 320 317 314 312 308 305 304 302 299 295 293 290 286 282 279 282 281 281 278 271
210 208 210 211 214 208 216 218 217 219 225 220 198 195 199 213 235 305 320 324 322 321 319 319 318 315 313 312 310 308 308 308 306 305 303 300 295 289 287 288 285 283 278 271
208 211 214 214 221 222 230 210 223 235 224 212 199 203 210 234 257 292 310 317 321 323 322 321 321 321 320 318 316 316 315 315 313 309 306 305 301 298 297 296 292 288 281 274
201 208 214 211 215 214 210 202 219 226 226 199 207 212 222 246 286 294 311 318 320 321 321 322 325 325 325 324 324 325 323 321 317 314 312 309 308 307 308 305 303 295 286 277
204 205 210 213 214 215 201 203 217 213 195 191 201 207 219 245 272 299 313 316 321 323 324 325 325 326 325 325 325 326 326 323 321 320 317 315 313 312 314 317 320 311 300 282
215 213 212 220 220 218 205 222 211 208 196 201 206 216 230 247 277 298 309 314 320 322 323 323 324 325 327 327 328 328 327 324 321 320 319 318 320 322 322 327 336 337 334 317
216 217 219 217 220 214 210 222 215 212 208 208 211 221 236 259 279 299 305 309 315 318 319 321 323 323 324 326 326 327 327 326 325 323 323 323 326 330 335 337 346 358 7 15
215 210 215 220 218 212 217 220 216 210 209 209 216 230 248 262 285 296 302 306 311 313 316 318 320 322 325 328 329 330 330 329 330 328 326 325 332 333 337 344 346 358 5 8
215 214 219 225 219 224 221 219 214 211 210 215 223 235 253 269 285 292 298 302 306 310 314 317 318 321 323 325 328 329 330 331 331 335 338 336 334 332 335 337 348 353 350 351